Mazatlan Airport, Mexico

6:49 PM MDT on September 23, 2017 (GMT -0600)
Gen Rafael Buelna International

Weather History for MMMZ - November, 2012

Change the Weather History Date:

Saturday, November 10, 2012

  Actual Average Record
Temperature  
Mean Temperature 78 °F -  
Max Temperature 87 °F 85 °F 91 °F (1998)
Min Temperature 69 °F 63 °F 53 °F (2011)
Cooling Degree Days 13    
Growing Degree Days 28 (Base 50)    
Moisture  
Dew Point 71 °F    
Average Humidity 85    
Maximum Humidity 100    
Minimum Humidity 58    
Precipitation  
Precipitation 0.00 in - - ()
Sea Level Pressure  
Sea Level Pressure 29.87 in    
Wind  
Wind Speed 6 mph ()    
Max Wind Speed 12 mph    
Max Gust Speed -    
Visibility 7.4 miles    
Events      
Averages and records for this station are not official NWS values.
T = Trace of Precipitation, MM = Missing Value Source: Averaged Metar Reports

Daily Weather History Graph

Daily Weather History Graph

Search for Another Location

Airport or City:

Trip Planner

Search our weather history database for the weather conditions in past years. The results will help you decide how hot, cold, wet, or windy it might be!

Date:

Astronomy

Nov. 10, 2012 Rise Set
Actual Time 6:15 AM MST 5:21 PM MST
Civil Twilight 5:52 AM MST 5:45 PM MST
Nautical Twilight 5:25 AM MST 6:12 PM MST
Astronomical Twilight 4:58 AM MST 6:39 PM MST
Moon 2:46 AM MST (11/10) 2:52 PM MST (11/10)
Length of Visible Light 11h 53m
Length of Day
11h 06m
Waning Crescent, 14% of the Moon is Illuminated
Nov 10
Waning Crescent
Nov 13
New
Nov 20
First Quarter
Nov 28
Full
Dec 6
Last Quarter

Hourly Weather History & Observations

Time (MST) Temp. Heat Index Dew Point Humidity Pressure Visibility Wind Dir Wind Speed Gust Speed Precip Events Conditions
12:43 AM 71.6 °F - 69.8 °F 94% 29.86 in 5.0 mi North 8.1 mph - N/A   Clear
1:44 AM 71.6 °F - 69.8 °F 94% 29.86 in 5.0 mi North 6.9 mph - N/A   Clear
2:44 AM 71.6 °F - 69.8 °F 94% 29.85 in 5.0 mi NE 6.9 mph - N/A   Scattered Clouds
3:51 AM 71.6 °F - 69.8 °F 94% 29.85 in 5.0 mi NNE 6.9 mph - N/A   Scattered Clouds
4:53 AM 69.8 °F - 68.0 °F 94% 29.87 in 5.0 mi NNW 5.8 mph - N/A   Mostly Cloudy
5:47 AM 69.8 °F - 69.8 °F 100% 29.88 in 1.0 mi NE 6.9 mph - N/A   Overcast
6:42 AM 69.8 °F - 68.0 °F 94% 29.89 in 2.0 mi NNE 6.9 mph - N/A   Overcast
7:43 AM 71.6 °F - 71.6 °F 100% 29.90 in 0.8 mi North 6.9 mph - N/A   Mostly Cloudy
8:04 AM 73.4 °F - 71.6 °F 94% 29.92 in 2.0 mi NNW 5.8 mph - N/A   Scattered Clouds
8:42 AM 77.0 °F - 73.4 °F 89% 29.94 in 7.0 mi North 5.8 mph - N/A   Scattered Clouds
9:48 AM 80.6 °F 84.6 °F 71.6 °F 74% 29.93 in 9.0 mi NNE 5.8 mph - N/A   Scattered Clouds
10:44 AM 84.2 °F 89.6 °F 71.6 °F 66% 29.93 in 10.0 mi SE 3.5 mph - N/A   Mostly Cloudy
11:41 AM 84.2 °F 89.6 °F 71.6 °F 66% 29.88 in 10.0 mi WSW 5.8 mph - N/A   Mostly Cloudy
12:40 PM 87.8 °F 93.8 °F 71.6 °F 58% 29.85 in 10.0 mi SSW 9.2 mph - N/A   Scattered Clouds
1:40 PM 84.2 °F 89.6 °F 71.6 °F 66% 29.84 in 11.0 mi SSW 10.4 mph - N/A   Mostly Cloudy
2:43 PM 84.2 °F 89.6 °F 71.6 °F 66% 29.82 in 12.0 mi WSW 11.5 mph - N/A   Mostly Cloudy
3:44 PM 82.4 °F 87.2 °F 71.6 °F 70% 29.82 in 12.0 mi WSW 10.4 mph - N/A   Partly Cloudy
4:42 PM 80.6 °F 84.6 °F 71.6 °F 74% 29.79 in 10.0 mi West 11.5 mph - N/A   Partly Cloudy
5:44 PM 77.0 °F - 71.6 °F 83% 29.84 in 10.0 mi WSW 6.9 mph - N/A   Clear
6:44 PM 75.2 °F - 69.8 °F 83% 29.85 in 10.0 mi Calm Calm - N/A   Clear
7:44 PM 73.4 °F - 71.6 °F 94% 29.86 in 10.0 mi NNW 8.1 mph - N/A   Clear
8:40 PM 73.4 °F - 71.6 °F 94% 29.88 in 8.0 mi NNW 6.9 mph - N/A   Clear
9:42 PM 71.6 °F - 69.8 °F 94% 29.89 in 8.0 mi North 8.1 mph - N/A   Clear
10:41 PM 73.4 °F - 71.6 °F 94% 29.89 in 8.0 mi NNW 6.9 mph - N/A   Scattered Clouds
11:42 PM 73.4 °F - 69.8 °F 88% 29.89 in 9.0 mi NW 6.9 mph - N/A   Scattered Clouds